Flag for Israel Weather past 2 weeks in Kfar Saba, Israel

Now
75 °F

Scattered clouds.


Feels Like: 78 °F
Forecast: 62 / 76 °F
Wind: 6 mph from Northwest

Location: Dov Airport

Current Time: Oct 20, 2014 at 11:40:29 AM

Latest Report: Oct 20, 2014 at 10:50 AM


Visibility: N/A

Pressure: 29.89 "Hg

Humidity: 54%

Dew point: 57 °F

Location of Kfar SabaLocation

Historic Weather in Kfar Saba — Graph

°F

Kfar Saba temperature yesterday

Maximum temperature yesterday: 82 °F (at 10:50 AM)
Minimum temperature yesterday: 68 °F (at 5:50 PM)
Average temperature yesterday: 76 °F

Past Weeks' High & Low Weather Summary

 TemperatureHumidityPressure
High84 °F (Oct 8, 2:50 PM)94% (Oct 19, 5:50 PM)30.12 "Hg (Oct 19, 5:50 PM)
Low66 °F (Oct 20, 5:50 AM)48% (Oct 5, 10:50 AM)29.71 "Hg (Oct 19, 2:50 PM)
Average77 °F66%29.94 "Hg
* Reported Oct 5 9:50 AM — Oct 20 9:50 AM, Kfar Saba, Weather by CustomWeather, © 2014

Note: Actual official high and low records may vary slightly from our data, if they occured in-between our weather recording intervals... More about our weather records

Advertising

Kfar Saba weather history for previous 24 hours

 ConditionsComfort  
Time TempWeatherWind HumidityBarometerVisibility
9:50 AM
Oct 20
75 °FPassing clouds.5 mph61%29.86 "HgN/A
8:50 AM70 °FPassing clouds.7 mph73%29.86 "HgN/A
7:50 AM66 °FScattered clouds.6 mph83%29.83 "HgN/A
5:50 AM66 °FPassing clouds.3 mph83%29.80 "HgN/A
10:50 PM
Oct 19
70 °FPassing clouds.3 mph73%29.80 "HgN/A
9:50 PM70 °FClear.3 mph78%29.80 "Hg10 mi
8:50 PM72 °FClear.3 mph69%29.77 "Hg10 mi
7:50 PM72 °FLight rain. Passing clouds.12 mph69%29.77 "HgN/A
6:50 PM70 °FLight rain. Passing clouds.23 mph83%29.77 "HgN/A
5:50 PM68 °FLight rain. Broken clouds.32 mph94%29.74 "HgN/A
5:03 PM73 °FHeavy rain. Broken clouds.17 mph78%29.71 "Hg1 mi
4:50 PM77 °FPartly sunny.13 mph69%29.71 "HgN/A
3:50 PM82 °FScattered clouds.15 mph58%29.71 "HgN/A
2:50 PM81 °FPartly sunny.15 mph62%29.71 "HgN/A
1:50 PM81 °FPartly sunny.13 mph66%29.74 "HgN/A
12:50 PM82 °FPassing clouds.13 mph62%29.74 "HgN/A
11:50 AM81 °FPassing clouds.14 mph62%29.77 "HgN/A
Weather by CustomWeather, © 2014

See weather overviewHow to use our weather pages